Date,TemperatureHighF,TemperatureAvgF,TemperatureLowF,DewpointHighF,DewpointAvgF,DewpointLowF,HumidityHigh,HumidityAvg,HumidityLow,PressureMaxIn,PressureMinIn,WindSpeedMaxMPH,WindSpeedAvgMPH,GustSpeedMaxMPH,PrecipitationSumIn
2013-2-1,73,65,54,57,50,41,70,59,50,30.26,30.15,15,4,0,0.00
2013-2-2,74,66,57,56,52,40,77,61,48,30.25,30.11,10,2,0,0.00
2013-2-3,77,64,53,55,51,43,89,65,36,30.16,30.06,10,1,0,0.00
2013-2-4,74,63,51,56,48,39,81,61,38,30.14,30.03,5,0,0,0.00
2013-2-5,79,67,54,64,58,51,91,75,58,30.08,30.00,5,0,0,0.00
2013-2-6,80,71,62,66,63,59,93,78,61,30.11,30.02,7,1,0,0.00
2013-2-7,82,74,68,67,65,63,88,74,61,30.08,29.95,7,1,0,0.00
2013-2-8,85,74,67,74,68,61,94,84,61,30.02,29.92,10,1,0,0.16
2013-2-9,79,71,63,67,63,59,93,77,67,30.16,30.01,10,3,0,0.00
2013-2-10,76,73,71,66,63,60,81,71,60,30.24,30.14,14,4,0,0.02
2013-2-11,79,74,70,67,65,63,81,74,64,30.21,30.11,11,2,0,0.00
2013-2-12,85,75,67,71,68,64,92,80,59,30.12,29.98,5,0,0,0.00
2013-2-13,86,76,69,74,70,67,96,84,64,30.01,29.91,4,0,0,0.00
2013-2-14,84,73,63,76,69,61,95,88,65,30.02,29.86,9,1,0,0.65
2013-2-15,73,67,63,68,65,62,97,94,84,30.01,29.94,10,1,0,0.82
2013-2-16,75,65,55,65,57,46,97,77,42,30.08,29.88,8,2,0,0.04
2013-2-17,60,52,46,46,30,20,74,45,24,30.30,30.08,7,2,0,0.00
2013-2-18,69,60,48,57,46,37,70,62,51,30.31,30.20,10,2,0,0.00
2013-2-19,80,71,65,67,63,55,93,75,63,30.20,30.09,6,1,0,0.00
2013-2-20,78,71,66,69,66,60,95,84,59,30.11,30.01,9,2,0,0.00
2013-2-21,82,75,68,70,67,64,86,77,65,30.09,29.99,7,1,0,0.00
2013-2-22,81,76,73,73,71,68,89,83,73,30.10,30.01,12,2,0,0.00
2013-2-23,86,77,73,73,71,68,93,82,64,30.04,29.92,5,0,0,0.00
2013-2-24,86,77,69,75,71,68,96,84,62,29.99,29.89,7,0,0,0.00
2013-2-25,87,77,68,75,71,66,94,82,62,29.91,29.82,6,0,0,0.00
2013-2-26,85,79,75,76,73,70,90,82,70,29.90,29.80,4,0,0,0.02
2013-2-27,78,71,66,73,68,64,93,88,69,29.96,29.86,3,0,0,0.24
2013-2-28,74,66,61,65,55,48,94,71,50,30.00,29.91,4,0,0,0.00